EW8513 Weather Reports


time (UTC)temp
C
wind
direction
speed
KPH
gust
KPH
rain 1hr
cm
rain 24hr
cm
rain mn
cm
humidity
%
barometer
mb
20260507231538 15 63 1.6 9.7 0.00 4.60 4.17 37 1005.7
20260507230036 15 0 3.2 12.9 0.00 4.60 4.17 38 1005.5
20260507224543 15 20 1.6 16.1 0.00 4.72 4.17 36 1005.4
20260507223043 16 44 3.2 19.3 0.00 4.72 4.17 35 1005.3
20260507221538 16 16 8.0 20.9 0.00 4.72 4.17 35 1005.1
20260507220043 16 0 3.2 17.7 0.00 4.72 4.17 36 1005.1
20260507214539 16 36 4.8 12.9 0.00 4.72 4.17 34 1004.9
20260507213037 16 25 4.8 17.7 0.00 4.72 4.17 36 1004.9
20260507211537 16 18 4.8 16.1 0.00 4.72 4.17 37 1004.9
20260507210042 17 22 6.4 19.3 0.00 4.72 4.17 35 1004.8
20260507204544 17 340 1.6 19.3 0.00 4.75 4.17 35 1004.9
20260507203037 17 41 1.6 11.3 0.00 4.75 4.17 34 1004.8
20260507201542 17 70 1.6 8.0 0.00 4.75 4.17 35 1004.7
20260507200045 17 138 3.2 24.1 0.00 4.75 4.17 35 1005.0
20260507194537 17 36 4.8 16.1 0.00 5.18 4.17 35 1005.1
20260507193044 17 17 3.2 27.4 0.00 5.18 4.17 32 1005.2
20260507191545 17 21 9.7 25.7 0.00 5.18 4.17 32 1005.1
20260507190037 17 21 8.0 22.5 0.00 5.18 4.17 36 1005.3
20260507184537 18 30 4.8 17.7 0.00 5.28 4.17 32 1005.4
20260507183036 18 13 0.0 11.3 0.00 5.28 4.17 37 1005.3
20260507181537 18 11 6.4 12.9 0.00 5.28 4.17 38 1005.5
20260507180044 17 30 6.4 20.9 0.00 5.28 4.17 38 1005.5
20260507174545 17 38 6.4 16.1 0.00 5.28 4.17 41 1005.6
20260507173037 17 5 4.8 19.3 0.00 5.28 4.17 40 1005.5
20260507171538 17 74 3.2 20.9 0.00 5.28 4.17 46 1005.7
20260507170044 16 0 6.4 20.9 0.00 5.28 4.17 50 1005.9
20260507164537 16 45 3.2 11.3 0.00 5.28 4.17 53 1005.9
20260507163040 16 329 4.8 16.1 0.00 5.28 4.17 53 1006.2
20260507161539 15 32 3.2 17.7 0.00 5.28 4.17 55 1006.4
20260507160037 16 43 4.8 19.3 0.00 5.28 4.17 55 1006.5
20260507154537 16 32 1.6 19.3 0.00 5.28 4.17 57 1006.5
20260507153043 16 15 3.2 14.5 0.00 5.28 4.17 58 1006.8
20260507151540 16 14 0.0 17.7 0.00 5.28 4.17 57 1006.8
20260507150041 16 21 1.6 14.5 0.00 5.28 4.17 56 1007.0
20260507144537 15 71 1.6 17.7 0.00 5.31 4.17 57 1007.2
20260507143037 15 26 1.6 14.5 0.00 5.31 4.17 58 1007.1
20260507141543 14 30 0.0 12.9 0.00 5.31 4.17 61 1007.2
20260507140042 14 306 3.2 12.9 0.00 5.31 4.17 59 1007.2
20260507134547 13 0 1.6 16.1 0.00 5.31 4.17 61 1007.1
20260507133038 13 342 1.6 12.9 0.00 5.31 4.17 66 1007.3
20260507131552 13 24 3.2 9.7 0.00 5.31 4.17 70 1007.5
20260507130037 12 20 3.2 20.9 0.00 5.31 4.17 70 1007.6
20260507124537 11 88 1.6 16.1 0.00 5.31 4.17 78 1007.6
20260507123036 11 0 1.6 8.0 0.00 5.31 4.17 83 1007.5
20260507121538 10 25 0.0 12.9 0.00 5.31 4.17 85 1007.6
20260507120044 10 33 0.0 17.7 0.00 5.31 4.17 89 1007.7
20260507114538 9 0 0.0 9.7 0.00 5.31 4.17 91 1007.4
20260507113037 9 0 0.0 0.0 0.00 5.31 4.17 91 1007.7
20260507111537 9 0 0.0 3.2 0.00 5.31 4.17 91 1007.4
20260507110037 9 0 0.0 1.6 0.00 5.31 4.17 91 1007.5
20260507104537 9 0 0.0 4.8 0.00 5.31 4.17 90 1007.6
20260507103040 9 0 0.0 3.2 0.00 5.31 4.17 90 1006.9
20260507101538 9 0 0.0 3.2 0.00 5.31 4.17 90 1006.9
20260507100040 10 0 0.0 1.6 0.00 5.31 4.17 90 1006.7
20260507094539 10 0 0.0 4.8 0.00 5.31 4.17 90 1006.8
20260507093037 10 0 0.0 0.0 0.00 5.31 4.17 90 1006.9
20260507091543 10 0 0.0 6.4 0.00 5.31 4.17 90 1007.1
20260507090039 10 0 0.0 1.6 0.00 5.31 4.17 90 1007.0
20260507084538 11 0 0.0 3.2 0.00 5.31 4.17 90 1007.0
20260507083040 11 0 0.0 6.4 0.00 5.31 4.17 89 1006.7
20260507081544 11 0 0.0 8.0 0.00 5.31 4.17 89 1006.5
20260507080036 11 0 0.0 8.0 0.00 5.31 4.17 88 1007.0
20260507074552 11 0 0.0 9.7 0.00 5.31 4.17 88 1006.6
20260507073042 11 0 0.0 6.4 0.00 5.31 4.17 88 1006.1
20260507071541 11 0 0.0 8.0 0.00 5.31 4.17 89 1006.1
20260507070040 11 0 0.0 8.0 0.00 5.31 4.17 90 1006.0
20260507064538 11 0 1.6 12.9 0.00 5.31 4.17 90 1006.1
20260507063037 12 346 0.0 8.0 0.00 5.31 4.17 91 1006.0
20260507061537 12 346 0.0 6.4 0.00 5.31 4.17 92 1005.9
20260507060038 12 0 0.0 8.0 0.00 5.31 4.17 92 1005.9
20260507054547 13 0 0.0 6.4 3.48 5.31 4.17 93 1006.2
20260507053049 13 0 3.2 14.5 4.17 5.31 4.17 93 1006.0
20260507051539 13 0 1.6 8.0 4.17 5.31 4.17 94 1005.9
20260507050038 13 21 1.6 14.5 4.17 5.31 4.17 94 1006.2
20260507044544 13 272 1.6 9.7 0.23 1.40 0.23 94 1006.1
20260507043045 14 0 1.6 16.1 0.00 1.17 0.00 94 1006.0
20260507041542 15 0 0.0 3.2 0.03 1.17 0.00 95 1006.0
20260507040038 15 0 0.0 6.4 0.15 1.17 0.00 95 1005.9
20260507034537 15 0 0.0 6.4 0.15 1.17 1.17 95 1005.8
20260507033039 15 0 0.0 6.4 0.15 1.17 1.17 95 1005.7
20260507031600 15 106 1.6 4.8 0.13 1.14 1.14 95 1005.4
20260507030049 15 106 0.0 11.3 0.00 1.02 1.02 95 1005.1
20260507024542 15 0 0.0 8.0 0.00 1.02 1.02 95 1005.1
20260507023037 15 0 0.0 14.5 0.05 1.02 1.02 95 1005.4
20260507021536 15 0 0.0 12.9 0.05 1.02 1.02 94 1005.3
20260507020040 15 188 0.0 4.8 0.08 1.02 1.02 94 1005.3
20260507014547 15 0 1.6 9.7 0.08 1.02 1.02 94 1005.4
20260507013037 15 0 0.0 11.3 0.03 0.97 0.97 94 1005.4
20260507011538 15 150 0.0 11.3 0.03 0.97 0.97 94 1005.6
20260507010041 15 0 1.6 16.1 0.00 0.94 0.94 93 1005.6
20260507004544 15 0 3.2 9.7 0.00 0.94 0.94 93 1005.7
20260507003048 15 0 0.0 9.7 0.13 0.94 0.94 93 1005.6
20260507001540 15 161 4.8 14.5 0.20 0.94 0.94 93 1005.4
20260507000041 15 147 4.8 11.3 0.20 0.94 0.94 93 1005.4
20260506234537 15 0 0.0 9.7 0.20 0.94 0.94 92 1005.5
20260506233042 16 187 0.0 12.9 0.08 0.81 0.81 92 1005.4